CGABC CYKF-CYKF

Flight info

Callsign CGABC
Flight time 0h 11m
Altitude
Route VFR CIRCUTS
Aircraft C172

Departure

Time 2026-05-03 23:22
Airport Region of Waterloo International Airport (CYKF)

Arrival

Time 2026-05-03 23:33
Airport Region of Waterloo International Airport (CYKF)
Time Latitude Longitude Altitude Speed Heading
2026-05-03 23:14 43.45684 -80.38659 1031 ft 0 kts 175°
2026-05-03 23:17 43.45673 -80.38643 1012 ft 5 kts 91°
2026-05-03 23:17 43.45733 -80.38587 1031 ft 18 kts 30°
2026-05-03 23:17 43.45821 -80.38411 1032 ft 27 kts 68°
2026-05-03 23:17 43.45919 -80.38123 1035 ft 39 kts 65°
2026-05-03 23:18 43.46038 -80.37766 1040 ft 40 kts 67°
2026-05-03 23:18 43.46149 -80.37438 1045 ft 36 kts 66°
2026-05-03 23:18 43.46247 -80.37140 1049 ft 33 kts 65°
2026-05-03 23:18 43.46342 -80.36859 1053 ft 31 kts 64°
2026-05-03 23:19 43.46431 -80.36611 1056 ft 26 kts 63°
2026-05-03 23:19 43.46516 -80.36559 1058 ft 0 kts 11°
2026-05-03 23:20 43.46541 -80.36561 1058 ft 8 kts 348°
2026-05-03 23:20 43.46585 -80.36627 1057 ft 11 kts 265°
2026-05-03 23:20 43.46575 -80.36668 1056 ft 0 kts 250°
2026-05-03 23:21 43.46557 -80.36724 1055 ft 21 kts 246°
2026-05-03 23:21 43.46429 -80.37101 1049 ft 64 kts 246°
2026-05-03 23:22 43.45946 -80.38468 1263 ft 84 kts 237°
2026-05-03 23:22 43.45652 -80.39137 1464 ft 82 kts 230°
2026-05-03 23:22 43.45131 -80.39415 1688 ft 88 kts 175°
2026-05-03 23:23 43.44596 -80.38836 1781 ft 113 kts 124°
2026-05-03 23:23 43.44725 -80.37725 1831 ft 131 kts 51°
2026-05-03 23:23 43.45359 -80.36723 1684 ft 147 kts 51°
2026-05-03 23:23 43.46024 -80.35667 1561 ft 136 kts 51°
2026-05-03 23:24 43.46599 -80.34645 1418 ft 133 kts 60°
2026-05-03 23:24 43.47041 -80.33569 1415 ft 119 kts 62°
2026-05-03 23:24 43.47469 -80.32625 1379 ft 116 kts 57°
2026-05-03 23:24 43.47949 -80.31746 1335 ft 112 kts 53°
2026-05-03 23:25 43.48450 -80.30993 1331 ft 106 kts 31°
2026-05-03 23:25 43.49099 -80.31032 1377 ft 88 kts 316°
2026-05-03 23:25 43.49192 -80.31769 1355 ft 79 kts 248°
2026-05-03 23:25 43.48809 -80.32294 1334 ft 80 kts 219°
2026-05-03 23:26 43.48372 -80.32783 1308 ft 82 kts 219°
2026-05-03 23:26 43.47901 -80.33205 1334 ft 79 kts 219°
2026-05-03 23:26 43.47552 -80.33798 1350 ft 82 kts 239°
2026-05-03 23:26 43.47289 -80.34496 1392 ft 84 kts 244°
2026-05-03 23:27 43.47027 -80.35236 1283 ft 89 kts 233°
2026-05-03 23:27 43.46784 -80.36021 1154 ft 93 kts 244°
2026-05-03 23:27 43.46537 -80.36783 1058 ft 72 kts 245°
2026-05-03 23:27 43.46359 -80.37304 1046 ft 63 kts 245°
2026-05-03 23:28 43.46149 -80.37967 1077 ft 84 kts 243°
2026-05-03 23:28 43.45853 -80.38702 1195 ft 90 kts 240°
2026-05-03 23:28 43.45635 -80.39197 1296 ft 92 kts 236°
2026-05-03 23:28 43.44923 -80.39397 1649 ft 95 kts 148°
2026-05-03 23:29 43.44550 -80.38663 1894 ft 105 kts 107°
2026-05-03 23:29 43.44736 -80.37608 1930 ft 125 kts 60°
2026-05-03 23:29 43.45247 -80.36598 1935 ft 132 kts 54°
2026-05-03 23:29 43.45801 -80.35585 2009 ft 134 kts 53°
2026-05-03 23:30 43.46419 -80.34564 2027 ft 140 kts 49°
2026-05-03 23:30 43.46979 -80.33521 2075 ft 135 kts 30°
2026-05-03 23:30 43.47523 -80.33863 1739 ft 101 kts 244°
2026-05-03 23:30 43.47253 -80.34683 1310 ft 87 kts 246°
2026-05-03 23:31 43.47016 -80.35324 1222 ft 69 kts 227°
2026-05-03 23:31 43.46547 -80.35306 1332 ft 87 kts 143°
2026-05-03 23:31 43.46628 -80.34537 1472 ft 105 kts 17°
2026-05-03 23:31 43.47038 -80.35027 1422 ft 92 kts 269°
2026-05-03 23:32 43.46838 -80.35881 1191 ft 94 kts 243°
2026-05-03 23:32 43.46564 -80.36687 1110 ft 90 kts 243°
2026-05-03 23:32 43.46162 -80.37206 1163 ft 85 kts 179°
2026-05-03 23:32 43.45870 -80.36497 1182 ft 103 kts 81°
2026-05-03 23:33 43.46351 -80.35908 1230 ft 95 kts 338°
2026-05-03 23:33 43.46584 -80.36633 1098 ft 91 kts 249°
2026-05-03 23:33 43.46373 -80.37259 1047 ft 55 kts 250°
2026-05-03 23:33 43.46246 -80.37644 1042 ft 40 kts 244°
2026-05-03 23:34 43.46112 -80.38043 1036 ft 57 kts 245°
2026-05-03 23:34 43.45966 -80.38474 1033 ft 38 kts 240°
2026-05-03 23:34 43.45855 -80.38478 1032 ft 17 kts 136°
2026-05-03 23:34 43.45777 -80.38529 1031 ft 13 kts 232°